FDX724 KBUF-CYMX

Flight info

Callsign FDX724
Flight time 0h 41m
Altitude 17000
Route GEE V84 SYR DCT ART DCT CURDS DCT DAVDA DCT EPMOK Q955 MITIG
Aircraft B77L/H-SDE1E2E3FGHIJ2J3J4J5M1RWXY/LB1D1

Departure

Time 2026-05-05 20:32
Airport Buffalo Niagara International Airport (KBUF)

Arrival

Time 2026-05-05 21:14
Airport Montreal Mirabel International Airport (CYMX)
Time Latitude Longitude Altitude Speed Heading
2026-05-05 20:07 42.93958 -78.74124 726 ft 0 kts 265°
2026-05-05 20:16 42.93958 -78.74123 726 ft 3 kts 265°
2026-05-05 20:17 42.93960 -78.74096 727 ft 3 kts 264°
2026-05-05 20:17 42.93962 -78.74070 725 ft 3 kts 263°
2026-05-05 20:17 42.93966 -78.74043 724 ft 3 kts 231°
2026-05-05 20:17 42.93981 -78.74026 725 ft 3 kts 189°
2026-05-05 20:18 42.93982 -78.74026 725 ft 0 kts 188°
2026-05-05 20:19 42.93981 -78.74026 725 ft 0 kts 188°
2026-05-05 20:19 42.93980 -78.74026 725 ft 0 kts 188°
2026-05-05 20:19 42.93979 -78.74027 726 ft 0 kts 188°
2026-05-05 20:20 42.93924 -78.74038 729 ft 20 kts 188°
2026-05-05 20:20 42.93898 -78.74035 728 ft 0 kts 150°
2026-05-05 20:25 42.93892 -78.74023 727 ft 1 kts 116°
2026-05-05 20:25 42.93894 -78.73994 729 ft 8 kts 82°
2026-05-05 20:25 42.93898 -78.73898 726 ft 11 kts 101°
2026-05-05 20:25 42.93840 -78.73841 727 ft 11 kts 171°
2026-05-05 20:26 42.93775 -78.73790 727 ft 11 kts 129°
2026-05-05 20:26 42.93737 -78.73699 728 ft 11 kts 118°
2026-05-05 20:26 42.93701 -78.73606 730 ft 11 kts 118°
2026-05-05 20:26 42.93666 -78.73512 730 ft 11 kts 108°
2026-05-05 20:27 42.93661 -78.73407 731 ft 11 kts 91°
2026-05-05 20:27 42.93662 -78.73303 730 ft 12 kts 85°
2026-05-05 20:27 42.93700 -78.73203 730 ft 12 kts 45°
2026-05-05 20:27 42.93760 -78.73123 729 ft 12 kts 44°
2026-05-05 20:28 42.93821 -78.73043 730 ft 12 kts 44°
2026-05-05 20:28 42.93882 -78.72963 732 ft 12 kts 44°
2026-05-05 20:28 42.93943 -78.72882 730 ft 12 kts 44°
2026-05-05 20:28 42.94007 -78.72799 729 ft 13 kts 44°
2026-05-05 20:29 42.94073 -78.72713 730 ft 13 kts 43°
2026-05-05 20:29 42.94138 -78.72628 732 ft 13 kts 43°
2026-05-05 20:29 42.94204 -78.72543 732 ft 13 kts 44°
2026-05-05 20:29 42.94269 -78.72457 733 ft 13 kts 44°
2026-05-05 20:30 42.94361 -78.72337 732 ft 24 kts 44°
2026-05-05 20:30 42.94472 -78.72190 734 ft 19 kts 44°
2026-05-05 20:30 42.94565 -78.72068 734 ft 18 kts 44°
2026-05-05 20:30 42.94657 -78.71945 734 ft 18 kts 44°
2026-05-05 20:31 42.94746 -78.71832 735 ft 11 kts 36°
2026-05-05 20:31 42.94811 -78.71835 735 ft 10 kts 328°
2026-05-05 20:31 42.94833 -78.71920 735 ft 10 kts 251°
2026-05-05 20:31 42.94779 -78.72000 734 ft 19 kts 224°
2026-05-05 20:32 42.94497 -78.72372 735 ft 93 kts 224°
2026-05-05 20:32 42.93871 -78.73189 732 ft 152 kts 224°
2026-05-05 20:32 42.93054 -78.74270 1039 ft 175 kts 224°
2026-05-05 20:32 42.92117 -78.75485 1565 ft 191 kts 225°
2026-05-05 20:33 42.91142 -78.76705 2518 ft 191 kts 225°
2026-05-05 20:33 42.90155 -78.77909 3447 ft 188 kts 228°
2026-05-05 20:33 42.89057 -78.78893 4288 ft 197 kts 204°
2026-05-05 20:33 42.87592 -78.79005 4914 ft 233 kts 176°
2026-05-05 20:34 42.86003 -78.78092 5696 ft 263 kts 152°
2026-05-05 20:34 42.84749 -78.76140 6556 ft 289 kts 124°
2026-05-05 20:34 42.83761 -78.73725 7249 ft 289 kts 140°
2026-05-05 20:34 42.82325 -78.71921 8018 ft 287 kts 144°
2026-05-05 20:35 42.81218 -78.69537 8803 ft 316 kts 112°
2026-05-05 20:35 42.81085 -78.66518 9626 ft 327 kts 83°
2026-05-05 20:35 42.81614 -78.63473 10001 ft 334 kts 77°
2026-05-05 20:35 42.82003 -78.60341 9997 ft 335 kts 89°
2026-05-05 20:36 42.82086 -78.57078 10202 ft 358 kts 93°
2026-05-05 20:36 42.82089 -78.53526 10463 ft 391 kts 93°
2026-05-05 20:36 42.82093 -78.49704 10923 ft 414 kts 92°
2026-05-05 20:36 42.82124 -78.45719 11738 ft 426 kts 92°
2026-05-05 20:37 42.82180 -78.41653 12664 ft 433 kts 91°
2026-05-05 20:37 42.82253 -78.37518 13597 ft 441 kts 91°
2026-05-05 20:37 42.82336 -78.33311 14467 ft 446 kts 91°
2026-05-05 20:37 42.82440 -78.29137 15346 ft 447 kts 88°
2026-05-05 20:38 42.82993 -78.24911 16069 ft 460 kts 73°
2026-05-05 20:38 42.84273 -78.20889 16868 ft 467 kts 60°
2026-05-05 20:38 42.86094 -78.17216 17737 ft 467 kts 52°
2026-05-05 20:38 42.88062 -78.13635 18436 ft 475 kts 52°
2026-05-05 20:39 42.90052 -78.10003 19147 ft 480 kts 52°
2026-05-05 20:39 42.92056 -78.06320 19880 ft 485 kts 51°
2026-05-05 20:39 42.94066 -78.02599 20598 ft 489 kts 51°
2026-05-05 20:39 42.96085 -77.98834 21291 ft 495 kts 51°
2026-05-05 20:40 42.98126 -77.95010 21944 ft 501 kts 51°
2026-05-05 20:40 43.00179 -77.91149 22742 ft 504 kts 52°
2026-05-05 20:40 43.02252 -77.87240 23373 ft 510 kts 51°
2026-05-05 20:40 43.04316 -77.83341 23914 ft 515 kts 51°
2026-05-05 20:41 43.06427 -77.79350 24495 ft 519 kts 51°
2026-05-05 20:41 43.08555 -77.75323 25082 ft 523 kts 51°
2026-05-05 20:41 43.10703 -77.71252 25657 ft 527 kts 51°
2026-05-05 20:41 43.12859 -77.67160 26222 ft 531 kts 50°
2026-05-05 20:42 43.15035 -77.63027 26778 ft 535 kts 50°
2026-05-05 20:42 43.17187 -77.58932 27273 ft 541 kts 50°
2026-05-05 20:42 43.19389 -77.54739 27917 ft 541 kts 50°
2026-05-05 20:42 43.21588 -77.50540 28581 ft 542 kts 50°
2026-05-05 20:43 43.23797 -77.46318 28818 ft 547 kts 50°
2026-05-05 20:43 43.28194 -77.37891 28783 ft 541 kts 50°
2026-05-05 20:44 43.32565 -77.29493 28830 ft 541 kts 50°
2026-05-05 20:44 43.36953 -77.21048 28782 ft 543 kts 50°
2026-05-05 20:45 43.43515 -77.08366 28785 ft 542 kts 50°
2026-05-05 20:45 43.47851 -76.99955 28776 ft 541 kts 50°
2026-05-05 20:46 43.52204 -76.91487 28768 ft 542 kts 50°
2026-05-05 20:46 43.56557 -76.82995 28761 ft 541 kts 50°
2026-05-05 20:47 43.60886 -76.74525 28767 ft 540 kts 50°
2026-05-05 20:47 43.65218 -76.66024 28785 ft 540 kts 51°
2026-05-05 20:48 43.69539 -76.57524 28765 ft 541 kts 51°
2026-05-05 20:48 43.73859 -76.48996 28740 ft 542 kts 51°
2026-05-05 20:49 43.78172 -76.40457 28752 ft 541 kts 51°
2026-05-05 20:49 43.82454 -76.31958 28755 ft 541 kts 51°
2026-05-05 20:50 43.86757 -76.23389 28739 ft 543 kts 51°
2026-05-05 20:50 43.93754 -76.09973 28719 ft 536 kts 43°
2026-05-05 20:51 44.05143 -75.97524 28746 ft 519 kts 25°
2026-05-05 20:51 44.17413 -75.86841 28753 ft 520 kts 26°
2026-05-05 20:51 44.41866 -75.64980 28677 ft 524 kts 26°
2026-05-05 20:52 44.58881 -75.49711 28682 ft 527 kts 26°
2026-05-05 20:52 44.61968 -75.46928 28339 ft 527 kts 27°
2026-05-05 20:52 44.69327 -75.40231 27216 ft 529 kts 30°
2026-05-05 20:53 44.78031 -75.28702 25794 ft 537 kts 47°
2026-05-05 20:53 44.80435 -75.24713 25313 ft 531 kts 48°
2026-05-05 20:53 44.82811 -75.20767 24885 ft 525 kts 48°
2026-05-05 20:53 44.86696 -75.14395 24159 ft 519 kts 48°
2026-05-05 20:54 44.96087 -74.99144 22207 ft 509 kts 49°
2026-05-05 20:54 45.02836 -74.84572 20341 ft 503 kts 62°
2026-05-05 20:54 45.05286 -74.78249 19600 ft 496 kts 62°
2026-05-05 20:54 45.06951 -74.74015 19122 ft 483 kts 61°
2026-05-05 20:55 45.08552 -74.69984 18636 ft 454 kts 61°
2026-05-05 20:55 45.10055 -74.66208 18176 ft 429 kts 61°
2026-05-05 20:55 45.11479 -74.62621 17688 ft 408 kts 61°
2026-05-05 20:55 45.12850 -74.59249 17209 ft 390 kts 59°
2026-05-05 20:56 45.14253 -74.56023 16791 ft 383 kts 58°
2026-05-05 20:56 45.15683 -74.52790 16458 ft 391 kts 58°
2026-05-05 20:56 45.17129 -74.49498 16102 ft 394 kts 58°
2026-05-05 20:56 45.18553 -74.46219 15948 ft 386 kts 58°
2026-05-05 20:57 45.19957 -74.42968 15923 ft 388 kts 58°
2026-05-05 20:57 45.21375 -74.39685 15627 ft 391 kts 58°
2026-05-05 20:57 45.22801 -74.36398 15260 ft 390 kts 58°
2026-05-05 20:57 45.24221 -74.33126 14901 ft 388 kts 58°
2026-05-05 20:58 45.25631 -74.29877 14533 ft 384 kts 58°
2026-05-05 20:58 45.27020 -74.26671 14073 ft 381 kts 58°
2026-05-05 20:58 45.28407 -74.23464 13656 ft 381 kts 58°
2026-05-05 20:58 45.29780 -74.20283 13234 ft 381 kts 58°
2026-05-05 20:59 45.31238 -74.17175 12710 ft 376 kts 49°
2026-05-05 20:59 45.32930 -74.14356 12284 ft 374 kts 46°
2026-05-05 20:59 45.34661 -74.11641 11883 ft 372 kts 45°
2026-05-05 20:59 45.36412 -74.08936 11478 ft 369 kts 45°
2026-05-05 21:00 45.38135 -74.06271 11045 ft 360 kts 44°
2026-05-05 21:00 45.39799 -74.03683 10633 ft 350 kts 44°
2026-05-05 21:00 45.41419 -74.01168 10246 ft 341 kts 43°
2026-05-05 21:00 45.43232 -73.99130 9855 ft 328 kts 23°
2026-05-05 21:01 45.45256 -73.97681 9552 ft 323 kts 17°
2026-05-05 21:01 45.47283 -73.96360 9149 ft 318 kts 17°
2026-05-05 21:01 45.49284 -73.95069 8757 ft 313 kts 17°
2026-05-05 21:01 45.51256 -73.93806 8361 ft 309 kts 17°
2026-05-05 21:02 45.53231 -73.92555 8001 ft 312 kts 17°
2026-05-05 21:02 45.55191 -73.91233 7679 ft 313 kts 26°
2026-05-05 21:02 45.56858 -73.89226 7355 ft 313 kts 41°
2026-05-05 21:02 45.57849 -73.87748 7170 ft 312 kts 43°
2026-05-05 21:03 45.59834 -73.84778 6798 ft 310 kts 42°
2026-05-05 21:03 45.61314 -73.82572 6512 ft 305 kts 42°
2026-05-05 21:03 45.62774 -73.80390 6198 ft 301 kts 42°
2026-05-05 21:03 45.64211 -73.78234 5901 ft 296 kts 42°
2026-05-05 21:04 45.65618 -73.76113 5587 ft 293 kts 42°
2026-05-05 21:04 45.66543 -73.74717 5374 ft 290 kts 42°
2026-05-05 21:04 45.67916 -73.72639 5132 ft 287 kts 42°
2026-05-05 21:04 45.69278 -73.70574 4861 ft 283 kts 42°
2026-05-05 21:05 45.70615 -73.68554 4587 ft 276 kts 42°
2026-05-05 21:05 45.71922 -73.66575 4323 ft 271 kts 42°
2026-05-05 21:05 45.73310 -73.64894 4042 ft 250 kts 17°
2026-05-05 21:05 45.74910 -73.64433 4031 ft 231 kts 343°
2026-05-05 21:06 45.76354 -73.65193 3988 ft 216 kts 318°
2026-05-05 21:06 45.77572 -73.66385 3981 ft 213 kts 316°
2026-05-05 21:06 45.78775 -73.67613 3821 ft 211 kts 310°
2026-05-05 21:06 45.79843 -73.69043 3625 ft 209 kts 307°
2026-05-05 21:07 45.80869 -73.70510 3396 ft 209 kts 306°
2026-05-05 21:07 45.81785 -73.72045 3142 ft 195 kts 292°
2026-05-05 21:07 45.82370 -73.73745 3081 ft 188 kts 287°
2026-05-05 21:07 45.82890 -73.75429 3017 ft 185 kts 286°
2026-05-05 21:08 45.83192 -73.77140 2962 ft 173 kts 258°
2026-05-05 21:08 45.82705 -73.78655 2981 ft 171 kts 235°
2026-05-05 21:08 45.82008 -73.80037 2968 ft 171 kts 235°
2026-05-05 21:08 45.81284 -73.81379 3011 ft 165 kts 235°
2026-05-05 21:09 45.80596 -73.82613 2995 ft 158 kts 233°
2026-05-05 21:09 45.79848 -73.83802 2981 ft 158 kts 230°
2026-05-05 21:09 45.79106 -73.84904 2850 ft 157 kts 229°
2026-05-05 21:09 45.78340 -73.86016 2672 ft 156 kts 229°
2026-05-05 21:10 45.77577 -73.87113 2448 ft 153 kts 228°
2026-05-05 21:10 45.76850 -73.88153 2257 ft 142 kts 228°
2026-05-05 21:10 45.76188 -73.89100 2080 ft 126 kts 227°
2026-05-05 21:10 45.75583 -73.89972 1922 ft 124 kts 227°
2026-05-05 21:11 45.74965 -73.90854 1746 ft 128 kts 228°
2026-05-05 21:11 45.74333 -73.91760 1584 ft 129 kts 227°
2026-05-05 21:11 45.73712 -73.92649 1403 ft 123 kts 228°
2026-05-05 21:11 45.73109 -73.93514 1268 ft 127 kts 226°
2026-05-05 21:12 45.72474 -73.94420 1080 ft 129 kts 226°
2026-05-05 21:12 45.71854 -73.95306 910 ft 124 kts 228°
2026-05-05 21:12 45.71263 -73.96161 774 ft 122 kts 228°
2026-05-05 21:12 45.70561 -73.97150 616 ft 149 kts 225°
2026-05-05 21:13 45.69826 -73.98134 401 ft 140 kts 229°
2026-05-05 21:13 45.69159 -73.99151 306 ft 144 kts 226°
2026-05-05 21:13 45.68472 -74.00142 268 ft 128 kts 226°
2026-05-05 21:13 45.67966 -74.00862 272 ft 77 kts 225°
2026-05-05 21:14 45.67771 -74.01259 272 ft 45 kts 248°
2026-05-05 21:14 45.67668 -74.01660 274 ft 41 kts 250°
2026-05-05 21:14 45.67605 -74.02020 275 ft 35 kts 278°
2026-05-05 21:14 45.67634 -74.02251 276 ft 23 kts 228°
2026-05-05 21:15 45.67521 -74.02409 276 ft 23 kts 225°
2026-05-05 21:15 45.67432 -74.02588 277 ft 23 kts 250°
2026-05-05 21:15 45.67378 -74.02801 278 ft 23 kts 250°
2026-05-05 21:15 45.67323 -74.03013 278 ft 23 kts 250°
2026-05-05 21:16 45.67268 -74.03225 278 ft 23 kts 249°
2026-05-05 21:16 45.67209 -74.03453 278 ft 28 kts 250°
2026-05-05 21:16 45.67136 -74.03741 278 ft 32 kts 250°
2026-05-05 21:16 45.67064 -74.04031 278 ft 30 kts 251°
2026-05-05 21:17 45.66996 -74.04313 277 ft 30 kts 251°
2026-05-05 21:17 45.66987 -74.04349 277 ft 30 kts 252°